Location: Home
(42.5358°N, 72.7383°W)
Time: 16:53:07
(UTC-04:00)

Explorer 11/Cluster Stage 4 - Pass Details

Date: 05 August 2024
Orbit: 464 x 1208 km, 28.8° (Epoch: 19 September)

Event Time Altitude Azimuth Distance (km) Brightness Sun altitude
Rises 06:28:00 0° 258° (WSW) 4,112 9.6 6.1°
Reaches altitude 10° 06:32:16 10° 238° (WSW) 3,126 9.1 6.8°
Maximum altitude 06:36:34 16° 205° (SSW) 2,651 9.0 7.6°
Drops below altitude 10° 06:40:42 10° 171° (S) 2,965 9.5 8.3°
Sets 06:44:35 0° 150° (SSE) 3,796 10.3 9.0°
